Time,TemperatureF,DewpointF,PressureIn,WindDirection,WindDirectionDegrees,WindSpeedMPH,WindSpeedGustMPH,Humidity,HourlyPrecipIn,Conditions,Clouds,dailyrainin,SolarRadiationWatts/m^2,SoftwareType,DateUTC
2013-09-14 00:01:00,63.8,56.1,29.72,NNW,327,0.0,0.0,76,0.00,,,0.00,0,Wunderground v.1.15,2013-09-14 04:01:00,
2013-09-14 00:03:00,63.8,56.1,29.72,NNW,327,0.0,0.0,76,0.00,,,0.00,0,Wunderground v.1.15,2013-09-14 04:03:00,
2013-09-14 00:06:00,63.7,56.0,29.72,NNW,327,0.0,0.0,76,0.00,,,0.00,0,Wunderground v.1.15,2013-09-14 04:06:00,
2013-09-14 00:07:00,63.7,56.0,29.72,NNW,327,0.0,0.0,76,0.00,,,0.00,0,Wunderground v.1.15,2013-09-14 04:07:00,
2013-09-14 00:10:00,63.7,56.0,29.72,NNW,327,0.0,0.0,76,0.00,,,0.00,0,Wunderground v.1.15,2013-09-14 04:10:00,
2013-09-14 00:11:00,63.6,55.9,29.72,NNW,327,0.0,0.0,76,0.00,,,0.00,0,Wunderground v.1.15,2013-09-14 04:11:00,
2013-09-14 00:13:00,63.6,55.9,29.73,NNW,327,0.0,0.0,76,0.00,,,0.00,0,Wunderground v.1.15,2013-09-14 04:13:00,
2013-09-14 00:15:00,63.6,55.9,29.73,NNW,327,0.0,0.0,76,0.00,,,0.00,0,Wunderground v.1.15,2013-09-14 04:15:00,
2013-09-14 00:17:00,63.5,55.8,29.73,NNW,327,0.0,0.0,76,0.00,,,0.00,0,Wunderground v.1.15,2013-09-14 04:17:00,
2013-09-14 00:18:00,63.5,55.8,29.73,NNW,327,0.0,0.0,76,0.00,,,0.00,0,Wunderground v.1.15,2013-09-14 04:18:00,
2013-09-14 00:19:00,63.5,55.8,29.73,NNW,327,0.0,0.0,76,0.00,,,0.00,0,Wunderground v.1.15,2013-09-14 04:19:00,
2013-09-14 00:20:00,63.4,55.7,29.73,NNW,327,0.0,0.0,76,0.00,,,0.00,0,Wunderground v.1.15,2013-09-14 04:20:00,
2013-09-14 00:25:00,63.3,56.0,29.73,NNW,327,0.0,0.0,77,0.00,,,0.00,0,Wunderground v.1.15,2013-09-14 04:25:00,
2013-09-14 00:26:00,63.2,55.9,29.73,NNW,327,0.0,0.0,77,0.00,,,0.00,0,Wunderground v.1.15,2013-09-14 04:26:00,
2013-09-14 00:27:00,63.2,55.9,29.73,NNW,327,0.0,0.0,77,0.00,,,0.00,0,Wunderground v.1.15,2013-09-14 04:27:00,
2013-09-14 00:28:00,63.1,55.8,29.73,NNW,327,0.0,0.0,77,0.00,,,0.00,0,Wunderground v.1.15,2013-09-14 04:28:00,
2013-09-14 00:31:00,63.0,55.7,29.73,NNW,327,0.0,0.0,77,0.00,,,0.00,0,Wunderground v.1.15,2013-09-14 04:31:00,
2013-09-14 00:32:00,63.0,55.7,29.73,NNW,327,0.0,0.0,77,0.00,,,0.00,0,Wunderground v.1.15,2013-09-14 04:32:00,
2013-09-14 00:37:00,62.8,55.5,29.72,NNW,327,0.0,0.0,77,0.00,,,0.00,0,Wunderground v.1.15,2013-09-14 04:37:00,
2013-09-14 00:38:00,62.8,55.5,29.72,South,171,0.0,0.0,77,0.00,,,0.00,0,Wunderground v.1.15,2013-09-14 04:38:00,
2013-09-14 00:39:00,62.8,55.5,29.72,South,171,0.0,0.0,77,0.00,,,0.00,0,Wunderground v.1.15,2013-09-14 04:39:00,
2013-09-14 00:41:00,62.7,55.0,29.72,South,171,0.0,0.0,76,0.00,,,0.00,0,Wunderground v.1.15,2013-09-14 04:41:00,
2013-09-14 00:42:00,62.8,55.1,29.73,South,171,0.0,0.0,76,0.00,,,0.00,0,Wunderground v.1.15,2013-09-14 04:42:00,
2013-09-14 00:43:00,62.8,55.1,29.73,South,171,0.0,0.0,76,0.00,,,0.00,0,Wunderground v.1.15,2013-09-14 04:43:00,
2013-09-14 00:45:00,62.7,55.0,29.73,South,171,0.0,0.0,76,0.00,,,0.00,0,Wunderground v.1.15,2013-09-14 04:45:00,
2013-09-14 00:48:00,62.7,55.0,29.73,South,171,0.0,0.0,76,0.00,,,0.00,0,Wunderground v.1.15,2013-09-14 04:48:00,
2013-09-14 00:50:00,62.7,55.0,29.73,South,171,0.0,0.0,76,0.00,,,0.00,0,Wunderground v.1.15,2013-09-14 04:50:00,
2013-09-14 00:51:00,62.8,55.1,29.73,South,171,0.0,0.0,76,0.00,,,0.00,0,Wunderground v.1.15,2013-09-14 04:51:00,
2013-09-14 00:53:00,62.7,55.0,29.73,South,171,0.0,0.0,76,0.00,,,0.00,0,Wunderground v.1.15,2013-09-14 04:53:00,
2013-09-14 00:55:00,62.7,55.0,29.73,South,171,0.0,0.0,76,0.00,,,0.00,0,Wunderground v.1.15,2013-09-14 04:55:00,
2013-09-14 00:57:00,62.8,55.1,29.73,South,171,0.0,0.0,76,0.00,,,0.00,0,Wunderground v.1.15,2013-09-14 04:57:00,
2013-09-14 00:58:00,62.7,54.7,29.73,South,171,0.0,0.0,75,0.00,,,0.00,0,Wunderground v.1.15,2013-09-14 04:58:00,
2013-09-14 00:59:00,62.8,54.8,29.73,South,171,0.0,0.0,75,0.00,,,0.00,0,Wunderground v.1.15,2013-09-14 04:59:00,
2013-09-14 01:01:00,62.7,55.0,29.73,South,171,0.0,0.0,76,0.00,,,0.00,0,Wunderground v.1.15,2013-09-14 05:01:00,
2013-09-14 01:03:00,62.7,54.7,29.73,South,171,0.0,0.0,75,0.00,,,0.00,0,Wunderground v.1.15,2013-09-14 05:03:00,
2013-09-14 01:06:00,62.6,54.9,29.73,South,171,0.0,0.0,76,0.00,,,0.00,0,Wunderground v.1.15,2013-09-14 05:06:00,
2013-09-14 01:07:00,62.6,54.9,29.73,South,171,0.0,0.0,76,0.00,,,0.00,0,Wunderground v.1.15,2013-09-14 05:07:00,
2013-09-14 01:09:00,62.6,54.9,29.73,South,171,0.0,0.0,76,0.00,,,0.00,0,Wunderground v.1.15,2013-09-14 05:09:00,
2013-09-14 01:10:00,62.5,54.8,29.73,South,171,0.0,0.0,76,0.00,,,0.00,0,Wunderground v.1.15,2013-09-14 05:10:00,
2013-09-14 01:11:00,62.5,54.8,29.73,South,171,0.0,0.0,76,0.00,,,0.00,0,Wunderground v.1.15,2013-09-14 05:11:00,
2013-09-14 01:12:00,62.4,54.7,29.73,South,171,0.0,0.0,76,0.00,,,0.00,0,Wunderground v.1.15,2013-09-14 05:12:00,
2013-09-14 01:14:00,62.4,55.1,29.73,South,171,0.0,0.0,77,0.00,,,0.00,0,Wunderground v.1.15,2013-09-14 05:14:00,
2013-09-14 01:17:00,62.2,54.9,29.73,South,171,0.0,0.0,77,0.00,,,0.00,0,Wunderground v.1.15,2013-09-14 05:17:00,
2013-09-14 01:18:00,62.2,54.9,29.73,South,171,0.0,0.0,77,0.00,,,0.00,0,Wunderground v.1.15,2013-09-14 05:18:00,
2013-09-14 01:19:00,62.2,54.9,29.73,South,171,0.0,0.0,77,0.00,,,0.00,0,Wunderground v.1.15,2013-09-14 05:19:00,
2013-09-14 01:21:00,62.1,54.8,29.73,South,171,0.0,0.0,77,0.00,,,0.00,0,Wunderground v.1.15,2013-09-14 05:21:00,
2013-09-14 01:24:00,62.0,54.7,29.73,South,171,0.0,0.0,77,0.00,,,0.00,0,Wunderground v.1.15,2013-09-14 05:24:00,
2013-09-14 01:26:00,61.9,54.6,29.73,South,171,0.0,0.0,77,0.00,,,0.00,0,Wunderground v.1.15,2013-09-14 05:26:00,
2013-09-14 01:27:00,61.8,54.9,29.73,South,171,0.0,0.0,78,0.00,,,0.00,0,Wunderground v.1.15,2013-09-14 05:27:00,
2013-09-14 01:29:00,61.8,54.9,29.73,South,171,0.0,0.0,78,0.00,,,0.00,0,Wunderground v.1.15,2013-09-14 05:29:00,
2013-09-14 01:30:00,61.7,54.8,29.73,South,171,0.0,0.0,78,0.00,,,0.00,0,Wunderground v.1.15,2013-09-14 05:30:00,
2013-09-14 01:32:00,61.7,54.8,29.73,South,171,0.0,0.0,78,0.00,,,0.00,0,Wunderground v.1.15,2013-09-14 05:32:00,
2013-09-14 01:36:00,61.5,54.6,29.73,South,170,0.0,0.0,78,0.00,,,0.00,0,Wunderground v.1.15,2013-09-14 05:36:00,
2013-09-14 01:37:00,61.5,54.6,29.73,South,170,0.0,0.0,78,0.00,,,0.00,0,Wunderground v.1.15,2013-09-14 05:37:00,
2013-09-14 01:38:00,61.4,54.5,29.73,South,170,0.0,0.0,78,0.00,,,0.00,0,Wunderground v.1.15,2013-09-14 05:38:00,
2013-09-14 01:41:00,61.4,54.5,29.73,South,170,0.0,0.0,78,0.00,,,0.00,0,Wunderground v.1.15,2013-09-14 05:41:00,
2013-09-14 01:44:00,61.3,54.4,29.73,ESE,114,0.0,0.0,78,0.00,,,0.00,0,Wunderground v.1.15,2013-09-14 05:44:00,
2013-09-14 01:46:00,61.3,54.4,29.73,SSE,166,0.0,0.0,78,0.00,,,0.00,0,Wunderground v.1.15,2013-09-14 05:46:00,
2013-09-14 01:47:00,61.3,54.4,29.73,SSE,166,0.0,0.0,78,0.00,,,0.00,0,Wunderground v.1.15,2013-09-14 05:47:00,
2013-09-14 01:52:00,61.2,54.3,29.73,NNE,30,0.0,0.0,78,0.00,,,0.00,0,Wunderground v.1.15,2013-09-14 05:52:00,
2013-09-14 01:53:00,61.2,54.3,29.73,NNE,28,0.0,0.0,78,0.00,,,0.00,0,Wunderground v.1.15,2013-09-14 05:53:00,
2013-09-14 01:54:00,61.2,54.3,29.73,NNE,28,0.0,0.0,78,0.00,,,0.00,0,Wunderground v.1.15,2013-09-14 05:54:00,
2013-09-14 01:55:00,61.2,54.3,29.73,NNE,28,0.0,0.0,78,0.00,,,0.00,0,Wunderground v.1.15,2013-09-14 05:55:00,
2013-09-14 01:57:00,61.1,54.2,29.73,NNE,28,0.0,0.0,78,0.00,,,0.00,0,Wunderground v.1.15,2013-09-14 05:57:00,
2013-09-14 02:00:00,61.1,54.2,29.73,NNE,28,0.0,0.0,78,0.00,,,0.00,0,Wunderground v.1.15,2013-09-14 06:00:00,
2013-09-14 02:01:00,61.1,54.2,29.73,NNE,28,0.0,0.0,78,0.00,,,0.00,0,Wunderground v.1.15,2013-09-14 06:01:00,
2013-09-14 02:02:00,61.1,54.2,29.74,NNE,28,0.0,0.0,78,0.00,,,0.00,0,Wunderground v.1.15,2013-09-14 06:02:00,
2013-09-14 02:07:00,60.9,54.0,29.73,NNE,28,0.0,0.0,78,0.00,,,0.00,0,Wunderground v.1.15,2013-09-14 06:07:00,
2013-09-14 02:08:00,60.9,54.0,29.74,NNE,28,0.0,0.0,78,0.00,,,0.00,0,Wunderground v.1.15,2013-09-14 06:08:00,
2013-09-14 02:10:00,60.9,54.0,29.73,NNE,28,0.0,0.0,78,0.00,,,0.00,0,Wunderground v.1.15,2013-09-14 06:10:00,
2013-09-14 02:12:00,60.8,53.9,29.74,NNE,28,0.0,0.0,78,0.00,,,0.00,0,Wunderground v.1.15,2013-09-14 06:12:00,
2013-09-14 02:13:00,60.8,53.9,29.74,NNE,28,0.0,0.0,78,0.00,,,0.00,0,Wunderground v.1.15,2013-09-14 06:13:00,
2013-09-14 02:18:00,60.7,54.1,29.73,NNE,28,0.0,0.0,79,0.00,,,0.00,0,Wunderground v.1.15,2013-09-14 06:18:00,
2013-09-14 02:19:00,60.7,54.1,29.73,NNE,28,0.0,0.0,79,0.00,,,0.00,0,Wunderground v.1.15,2013-09-14 06:19:00,
2013-09-14 02:22:00,60.5,54.0,29.73,NNE,28,0.0,0.0,79,0.00,,,0.00,0,Wunderground v.1.15,2013-09-14 06:22:00,
2013-09-14 02:23:00,60.5,54.0,29.74,NNE,28,0.0,0.0,79,0.00,,,0.00,0,Wunderground v.1.15,2013-09-14 06:23:00,
2013-09-14 02:24:00,60.5,54.0,29.74,NNE,28,0.0,0.0,79,0.00,,,0.00,0,Wunderground v.1.15,2013-09-14 06:24:00,
2013-09-14 02:29:00,60.3,54.1,29.74,NNE,28,0.0,0.0,80,0.00,,,0.00,0,Wunderground v.1.15,2013-09-14 06:29:00,
2013-09-14 02:30:00,60.3,54.1,29.74,NNE,28,0.0,0.0,80,0.00,,,0.00,0,Wunderground v.1.15,2013-09-14 06:30:00,
2013-09-14 02:31:00,60.3,54.1,29.74,NNE,28,0.0,0.0,80,0.00,,,0.00,0,Wunderground v.1.15,2013-09-14 06:31:00,
2013-09-14 02:33:00,60.2,54.0,29.74,NNE,28,0.0,0.0,80,0.00,,,0.00,0,Wunderground v.1.15,2013-09-14 06:33:00,
2013-09-14 02:34:00,60.2,54.0,29.74,NNE,28,0.0,0.0,80,0.00,,,0.00,0,Wunderground v.1.15,2013-09-14 06:34:00,
2013-09-14 02:36:00,60.1,53.9,29.74,NNE,28,0.0,0.0,80,0.00,,,0.00,0,Wunderground v.1.15,2013-09-14 06:36:00,
2013-09-14 02:38:00,60.0,53.8,29.74,NNE,28,0.0,0.0,80,0.00,,,0.00,0,Wunderground v.1.15,2013-09-14 06:38:00,
2013-09-14 02:40:00,60.0,53.8,29.74,NNE,28,0.0,0.0,80,0.00,,,0.00,0,Wunderground v.1.15,2013-09-14 06:40:00,
2013-09-14 02:42:00,59.9,53.7,29.74,NNE,28,0.0,0.0,80,0.00,,,0.00,0,Wunderground v.1.15,2013-09-14 06:42:00,
2013-09-14 02:44:00,59.8,54.0,29.74,NNE,28,0.0,0.0,81,0.00,,,0.00,0,Wunderground v.1.15,2013-09-14 06:44:00,
2013-09-14 02:47:00,59.8,54.0,29.74,NNE,28,0.0,0.0,81,0.00,,,0.00,0,Wunderground v.1.15,2013-09-14 06:47:00,
2013-09-14 02:48:00,59.7,53.9,29.74,NNE,28,0.0,0.0,81,0.00,,,0.00,0,Wunderground v.1.15,2013-09-14 06:48:00,
2013-09-14 02:50:00,59.6,53.8,29.74,NNE,28,0.0,0.0,81,0.00,,,0.00,0,Wunderground v.1.15,2013-09-14 06:50:00,
2013-09-14 02:52:00,59.5,53.7,29.74,NNE,28,0.0,0.0,81,0.00,,,0.00,0,Wunderground v.1.15,2013-09-14 06:52:00,
2013-09-14 02:53:00,59.5,54.0,29.74,NNE,28,0.0,0.0,82,0.00,,,0.00,0,Wunderground v.1.15,2013-09-14 06:53:00,
2013-09-14 02:54:00,59.5,54.0,29.74,NNE,28,0.0,0.0,82,0.00,,,0.00,0,Wunderground v.1.15,2013-09-14 06:54:00,
2013-09-14 02:55:00,59.4,53.9,29.74,NNE,28,0.0,0.0,82,0.00,,,0.00,0,Wunderground v.1.15,2013-09-14 06:55:00,
2013-09-14 02:58:00,59.3,53.8,29.74,NNE,28,0.0,0.0,82,0.00,,,0.00,0,Wunderground v.1.15,2013-09-14 06:58:00,
2013-09-14 03:03:00,59.1,53.9,29.74,NNE,28,0.0,0.0,83,0.00,,,0.00,0,Wunderground v.1.15,2013-09-14 07:03:00,
2013-09-14 03:04:00,59.1,53.9,29.74,NNE,28,0.0,0.0,83,0.00,,,0.00,0,Wunderground v.1.15,2013-09-14 07:04:00,
2013-09-14 03:06:00,59.0,53.8,29.75,NNE,28,0.0,0.0,83,0.00,,,0.00,0,Wunderground v.1.15,2013-09-14 07:06:00,
2013-09-14 03:08:00,58.9,53.7,29.75,NNE,28,0.0,0.0,83,0.00,,,0.00,0,Wunderground v.1.15,2013-09-14 07:08:00,
2013-09-14 03:09:00,58.9,53.7,29.74,NNE,28,0.0,0.0,83,0.00,,,0.00,0,Wunderground v.1.15,2013-09-14 07:09:00,
2013-09-14 03:10:00,58.8,53.6,29.74,NNE,28,0.0,0.0,83,0.00,,,0.00,0,Wunderground v.1.15,2013-09-14 07:10:00,
2013-09-14 03:13:00,58.7,53.5,29.74,NNE,28,0.0,0.0,83,0.00,,,0.00,0,Wunderground v.1.15,2013-09-14 07:13:00,
2013-09-14 03:14:00,58.7,53.5,29.75,NNE,28,0.0,0.0,83,0.00,,,0.00,0,Wunderground v.1.15,2013-09-14 07:14:00,
2013-09-14 03:15:00,58.6,53.5,29.75,NNE,28,0.0,0.0,83,0.00,,,0.00,0,Wunderground v.1.15,2013-09-14 07:15:00,
2013-09-14 03:18:00,58.6,53.5,29.75,NNE,28,0.0,0.0,83,0.00,,,0.00,0,Wunderground v.1.15,2013-09-14 07:18:00,
2013-09-14 03:19:00,58.6,53.5,29.75,NNE,28,0.0,0.0,83,0.00,,,0.00,0,Wunderground v.1.15,2013-09-14 07:19:00,
2013-09-14 03:20:00,58.6,53.5,29.75,NNE,28,0.0,0.0,83,0.00,,,0.00,0,Wunderground v.1.15,2013-09-14 07:20:00,
2013-09-14 03:25:00,58.5,53.0,29.75,NNE,28,0.0,0.0,82,0.00,,,0.00,0,Wunderground v.1.15,2013-09-14 07:25:00,
2013-09-14 03:26:00,58.5,53.0,29.75,NNE,28,0.0,0.0,82,0.00,,,0.00,0,Wunderground v.1.15,2013-09-14 07:26:00,
2013-09-14 03:27:00,58.5,53.0,29.75,NNE,28,0.0,0.0,82,0.00,,,0.00,0,Wunderground v.1.15,2013-09-14 07:27:00,
2013-09-14 03:28:00,58.5,53.0,29.75,NNE,28,0.0,0.0,82,0.00,,,0.00,0,Wunderground v.1.15,2013-09-14 07:28:00,
2013-09-14 03:32:00,58.6,53.1,29.75,NNE,28,0.0,0.0,82,0.00,,,0.00,0,Wunderground v.1.15,2013-09-14 07:32:00,
2013-09-14 03:36:00,58.7,52.9,29.74,NNE,28,0.0,0.0,81,0.00,,,0.00,0,Wunderground v.1.15,2013-09-14 07:36:00,
2013-09-14 03:38:00,58.7,52.9,29.75,NNE,28,0.0,0.0,81,0.00,,,0.00,0,Wunderground v.1.15,2013-09-14 07:38:00,
2013-09-14 03:40:00,58.7,52.9,29.74,NNE,28,0.0,0.0,81,0.00,,,0.00,0,Wunderground v.1.15,2013-09-14 07:40:00,
2013-09-14 03:41:00,58.8,53.0,29.74,NNE,28,0.0,0.0,81,0.00,,,0.00,0,Wunderground v.1.15,2013-09-14 07:41:00,
2013-09-14 03:43:00,58.8,52.6,29.74,NNE,28,0.0,0.0,80,0.00,,,0.00,0,Wunderground v.1.15,2013-09-14 07:43:00,
2013-09-14 03:45:00,58.9,52.7,29.74,NNE,28,0.0,0.0,80,0.00,,,0.00,0,Wunderground v.1.15,2013-09-14 07:45:00,
2013-09-14 03:46:00,58.9,52.7,29.74,NNE,28,0.0,0.0,80,0.00,,,0.00,0,Wunderground v.1.15,2013-09-14 07:46:00,
2013-09-14 03:50:00,58.9,52.7,29.74,NNE,28,0.0,0.0,80,0.00,,,0.00,0,Wunderground v.1.15,2013-09-14 07:50:00,
2013-09-14 03:52:00,58.9,52.7,29.74,NNE,28,0.0,0.0,80,0.00,,,0.00,0,Wunderground v.1.15,2013-09-14 07:52:00,
2013-09-14 03:53:00,58.9,52.7,29.74,NNE,28,0.0,0.0,80,0.00,,,0.00,0,Wunderground v.1.15,2013-09-14 07:53:00,
2013-09-14 03:55:00,58.9,52.7,29.74,NNE,28,0.0,0.0,80,0.00,,,0.00,0,Wunderground v.1.15,2013-09-14 07:55:00,
2013-09-14 03:56:00,58.9,52.7,29.74,NNE,28,0.0,0.0,80,0.00,,,0.00,0,Wunderground v.1.15,2013-09-14 07:56:00,
2013-09-14 03:58:00,58.9,52.7,29.74,NNE,28,0.0,0.0,80,0.00,,,0.00,0,Wunderground v.1.15,2013-09-14 07:58:00,
2013-09-14 04:00:00,58.9,52.7,29.75,NNE,28,0.0,0.0,80,0.00,,,0.00,0,Wunderground v.1.15,2013-09-14 08:00:00,
2013-09-14 04:02:00,58.8,52.6,29.75,NNE,28,0.0,0.0,80,0.00,,,0.00,0,Wunderground v.1.15,2013-09-14 08:02:00,
2013-09-14 04:04:00,58.8,52.6,29.75,NNE,28,0.0,0.0,80,0.00,,,0.00,0,Wunderground v.1.15,2013-09-14 08:04:00,
2013-09-14 04:05:00,58.8,52.6,29.75,NNE,28,0.0,0.0,80,0.00,,,0.00,0,Wunderground v.1.15,2013-09-14 08:05:00,
2013-09-14 04:06:00,58.8,52.6,29.75,NNE,28,0.0,0.0,80,0.00,,,0.00,0,Wunderground v.1.15,2013-09-14 08:06:00,
2013-09-14 04:08:00,58.8,52.6,29.75,NNE,28,0.0,0.0,80,0.00,,,0.00,0,Wunderground v.1.15,2013-09-14 08:08:00,
2013-09-14 04:10:00,58.7,52.5,29.75,NNE,28,0.0,0.0,80,0.00,,,0.00,0,Wunderground v.1.15,2013-09-14 08:10:00,
2013-09-14 04:11:00,58.7,52.5,29.75,NNE,28,0.0,0.0,80,0.00,,,0.00,0,Wunderground v.1.15,2013-09-14 08:11:00,
2013-09-14 04:14:00,58.7,52.5,29.75,NNE,28,0.0,0.0,80,0.00,,,0.00,0,Wunderground v.1.15,2013-09-14 08:14:00,
2013-09-14 04:15:00,58.7,52.5,29.75,NNE,28,0.0,0.0,80,0.00,,,0.00,0,Wunderground v.1.15,2013-09-14 08:15:00,
2013-09-14 04:18:00,58.7,52.5,29.75,NNE,28,0.0,0.0,80,0.00,,,0.00,0,Wunderground v.1.15,2013-09-14 08:18:00,
2013-09-14 04:21:00,58.6,52.8,29.76,NNE,28,0.0,0.0,81,0.00,,,0.00,0,Wunderground v.1.15,2013-09-14 08:21:00,
2013-09-14 04:22:00,58.6,52.8,29.76,NNE,28,0.0,0.0,81,0.00,,,0.00,0,Wunderground v.1.15,2013-09-14 08:22:00,
2013-09-14 04:24:00,58.6,52.8,29.76,NNE,28,0.0,0.0,81,0.00,,,0.00,0,Wunderground v.1.15,2013-09-14 08:24:00,
2013-09-14 04:27:00,58.6,52.8,29.76,NNE,28,0.0,0.0,81,0.00,,,0.00,0,Wunderground v.1.15,2013-09-14 08:27:00,
2013-09-14 04:28:00,58.5,52.7,29.76,NNE,28,0.0,0.0,81,0.00,,,0.00,0,Wunderground v.1.15,2013-09-14 08:28:00,
2013-09-14 04:29:00,58.5,52.7,29.76,NNE,28,0.0,0.0,81,0.00,,,0.00,0,Wunderground v.1.15,2013-09-14 08:29:00,
2013-09-14 04:32:00,58.5,52.7,29.76,NNE,28,0.0,0.0,81,0.00,,,0.00,0,Wunderground v.1.15,2013-09-14 08:32:00,
2013-09-14 04:35:00,58.4,52.6,29.76,NNE,28,0.0,0.0,81,0.00,,,0.00,0,Wunderground v.1.15,2013-09-14 08:35:00,
2013-09-14 04:36:00,58.4,52.6,29.76,NNE,28,0.0,0.0,81,0.00,,,0.00,0,Wunderground v.1.15,2013-09-14 08:36:00,
2013-09-14 04:38:00,58.4,52.6,29.76,NNE,28,0.0,0.0,81,0.00,,,0.00,0,Wunderground v.1.15,2013-09-14 08:38:00,
2013-09-14 04:40:00,58.4,52.6,29.76,NNE,28,0.0,0.0,81,0.00,,,0.00,0,Wunderground v.1.15,2013-09-14 08:40:00,
2013-09-14 04:41:00,58.4,52.6,29.77,NNE,28,0.0,0.0,81,0.00,,,0.00,0,Wunderground v.1.15,2013-09-14 08:41:00,
2013-09-14 04:42:00,58.4,52.6,29.76,NNE,28,0.0,0.0,81,0.00,,,0.00,0,Wunderground v.1.15,2013-09-14 08:42:00,
2013-09-14 04:43:00,58.4,52.6,29.77,NNE,28,0.0,0.0,81,0.00,,,0.00,0,Wunderground v.1.15,2013-09-14 08:43:00,
2013-09-14 04:45:00,58.4,52.6,29.77,NNE,28,0.0,0.0,81,0.00,,,0.00,0,Wunderground v.1.15,2013-09-14 08:45:00,
2013-09-14 04:47:00,58.4,52.6,29.77,NNE,28,0.0,0.0,81,0.00,,,0.00,0,Wunderground v.1.15,2013-09-14 08:47:00,
2013-09-14 04:49:00,58.4,52.6,29.76,NE,46,0.0,0.0,81,0.00,,,0.00,0,Wunderground v.1.15,2013-09-14 08:49:00,
2013-09-14 04:51:00,58.4,52.6,29.76,NE,46,0.0,0.0,81,0.00,,,0.00,0,Wunderground v.1.15,2013-09-14 08:51:00,
2013-09-14 04:55:00,58.4,52.6,29.77,NE,46,0.0,0.0,81,0.00,,,0.00,0,Wunderground v.1.15,2013-09-14 08:55:00,
2013-09-14 04:56:00,58.4,52.6,29.77,NE,46,0.0,0.0,81,0.00,,,0.00,0,Wunderground v.1.15,2013-09-14 08:56:00,
2013-09-14 04:59:00,58.3,52.5,29.77,NE,46,0.0,0.0,81,0.00,,,0.00,0,Wunderground v.1.15,2013-09-14 08:59:00,
2013-09-14 05:02:00,58.3,52.5,29.77,NE,46,0.0,0.0,81,0.00,,,0.00,0,Wunderground v.1.15,2013-09-14 09:02:00,
2013-09-14 05:04:00,58.2,52.4,29.77,NE,46,0.0,0.0,81,0.00,,,0.00,0,Wunderground v.1.15,2013-09-14 09:04:00,
2013-09-14 05:05:00,58.2,52.4,29.77,NE,46,0.0,0.0,81,0.00,,,0.00,0,Wunderground v.1.15,2013-09-14 09:05:00,
2013-09-14 05:06:00,58.2,52.4,29.77,NE,46,0.0,0.0,81,0.00,,,0.00,0,Wunderground v.1.15,2013-09-14 09:06:00,
2013-09-14 05:10:00,58.2,52.4,29.77,NE,46,0.0,0.0,81,0.00,,,0.00,0,Wunderground v.1.15,2013-09-14 09:10:00,
2013-09-14 05:11:00,58.2,52.4,29.77,NE,46,0.0,0.0,81,0.00,,,0.00,0,Wunderground v.1.15,2013-09-14 09:11:00,
2013-09-14 05:12:00,58.2,52.4,29.77,NE,46,0.0,0.0,81,0.00,,,0.00,0,Wunderground v.1.15,2013-09-14 09:12:00,
2013-09-14 05:13:00,58.1,52.3,29.77,NE,46,0.0,0.0,81,0.00,,,0.00,0,Wunderground v.1.15,2013-09-14 09:13:00,
2013-09-14 05:14:00,58.1,52.3,29.77,NE,46,0.0,0.0,81,0.00,,,0.00,0,Wunderground v.1.15,2013-09-14 09:14:00,
2013-09-14 05:17:00,58.1,52.3,29.77,NE,46,0.0,0.0,81,0.00,,,0.00,0,Wunderground v.1.15,2013-09-14 09:17:00,
2013-09-14 05:18:00,58.0,52.2,29.78,NE,46,0.0,0.0,81,0.00,,,0.00,0,Wunderground v.1.15,2013-09-14 09:18:00,
2013-09-14 05:19:00,58.1,52.3,29.78,NE,46,0.0,0.0,81,0.00,,,0.00,0,Wunderground v.1.15,2013-09-14 09:19:00,
2013-09-14 05:22:00,58.0,52.2,29.78,NE,46,0.0,0.0,81,0.00,,,0.00,0,Wunderground v.1.15,2013-09-14 09:22:00,
2013-09-14 05:24:00,58.0,52.2,29.78,NE,46,0.0,0.0,81,0.00,,,0.00,0,Wunderground v.1.15,2013-09-14 09:24:00,
2013-09-14 05:25:00,58.0,52.2,29.78,NE,46,0.0,0.0,81,0.00,,,0.00,0,Wunderground v.1.15,2013-09-14 09:25:00,
2013-09-14 05:28:00,57.9,52.1,29.78,NE,46,0.0,0.0,81,0.00,,,0.00,0,Wunderground v.1.15,2013-09-14 09:28:00,
2013-09-14 05:30:00,58.0,52.2,29.78,NE,46,0.0,0.0,81,0.00,,,0.00,0,Wunderground v.1.15,2013-09-14 09:30:00,
2013-09-14 05:31:00,57.9,52.1,29.78,NE,46,0.0,0.0,81,0.00,,,0.00,0,Wunderground v.1.15,2013-09-14 09:31:00,
2013-09-14 05:34:00,57.9,52.1,29.78,NE,46,0.0,0.0,81,0.00,,,0.00,0,Wunderground v.1.15,2013-09-14 09:34:00,
2013-09-14 05:37:00,57.8,52.0,29.78,NE,46,0.0,0.0,81,0.00,,,0.00,0,Wunderground v.1.15,2013-09-14 09:37:00,
2013-09-14 05:38:00,57.8,52.0,29.78,NE,46,0.0,0.0,81,0.00,,,0.00,0,Wunderground v.1.15,2013-09-14 09:38:00,
2013-09-14 05:39:00,57.8,52.0,29.78,NE,46,0.0,0.0,81,0.00,,,0.00,0,Wunderground v.1.15,2013-09-14 09:39:00,
2013-09-14 05:41:00,57.7,51.9,29.78,NE,46,0.0,0.0,81,0.00,,,0.00,0,Wunderground v.1.15,2013-09-14 09:41:00,
2013-09-14 05:42:00,57.7,51.9,29.78,NE,46,0.0,0.0,81,0.00,,,0.00,0,Wunderground v.1.15,2013-09-14 09:42:00,
2013-09-14 05:44:00,57.7,51.9,29.78,NE,46,0.0,0.0,81,0.00,,,0.00,0,Wunderground v.1.15,2013-09-14 09:44:00,
2013-09-14 05:48:00,57.6,51.8,29.78,NE,46,0.0,0.0,81,0.00,,,0.00,0,Wunderground v.1.15,2013-09-14 09:48:00,
2013-09-14 05:49:00,57.5,51.7,29.79,NE,46,0.0,0.0,81,0.00,,,0.00,0,Wunderground v.1.15,2013-09-14 09:49:00,
2013-09-14 05:50:00,57.5,51.7,29.78,NE,46,0.0,0.0,81,0.00,,,0.00,0,Wunderground v.1.15,2013-09-14 09:50:00,
2013-09-14 05:53:00,57.4,51.6,29.78,NE,46,0.0,0.0,81,0.00,,,0.00,0,Wunderground v.1.15,2013-09-14 09:53:00,
2013-09-14 05:56:00,57.4,51.6,29.79,NNE,29,0.0,0.0,81,0.00,,,0.00,0,Wunderground v.1.15,2013-09-14 09:56:00,
2013-09-14 05:57:00,57.3,51.5,29.79,NNE,29,0.0,0.0,81,0.00,,,0.00,0,Wunderground v.1.15,2013-09-14 09:57:00,
2013-09-14 05:59:00,57.3,51.5,29.79,NNE,29,0.0,0.0,81,0.00,,,0.00,0,Wunderground v.1.15,2013-09-14 09:59:00,
2013-09-14 06:00:00,57.3,51.5,29.79,NNE,29,0.0,0.0,81,0.00,,,0.00,0,Wunderground v.1.15,2013-09-14 10:00:00,
2013-09-14 06:01:00,57.3,51.5,29.79,NNE,29,0.0,0.0,81,0.00,,,0.00,0,Wunderground v.1.15,2013-09-14 10:01:00,
2013-09-14 06:03:00,57.3,51.9,29.79,NNE,29,0.0,0.0,82,0.00,,,0.00,0,Wunderground v.1.15,2013-09-14 10:03:00,
2013-09-14 06:05:00,57.2,51.8,29.79,NNE,29,0.0,0.0,82,0.00,,,0.00,0,Wunderground v.1.15,2013-09-14 10:05:00,
2013-09-14 06:06:00,57.2,51.8,29.79,NNE,29,0.0,0.0,82,0.00,,,0.00,0,Wunderground v.1.15,2013-09-14 10:06:00,
2013-09-14 06:07:00,57.2,51.8,29.79,NNE,29,0.0,0.0,82,0.00,,,0.00,0,Wunderground v.1.15,2013-09-14 10:07:00,
2013-09-14 06:10:00,57.1,51.7,29.79,NNE,29,0.0,0.0,82,0.00,,,0.00,0,Wunderground v.1.15,2013-09-14 10:10:00,
2013-09-14 06:11:00,57.1,51.7,29.79,NNE,29,0.0,0.0,82,0.00,,,0.00,0,Wunderground v.1.15,2013-09-14 10:11:00,
2013-09-14 06:13:00,57.1,51.7,29.79,NNE,29,0.0,0.0,82,0.00,,,0.00,0,Wunderground v.1.15,2013-09-14 10:13:00,
2013-09-14 06:14:00,57.1,51.7,29.79,NNE,29,0.0,0.0,82,0.00,,,0.00,0,Wunderground v.1.15,2013-09-14 10:14:00,
2013-09-14 06:16:00,57.1,51.7,29.79,NNE,29,0.0,0.0,82,0.00,,,0.00,0,Wunderground v.1.15,2013-09-14 10:16:00,
2013-09-14 06:18:00,57.1,51.7,29.79,NNE,29,0.0,0.0,82,0.00,,,0.00,0,Wunderground v.1.15,2013-09-14 10:18:00,
2013-09-14 06:20:00,57.0,51.6,29.79,NNE,29,0.0,0.0,82,0.00,,,0.00,0,Wunderground v.1.15,2013-09-14 10:20:00,
2013-09-14 06:23:00,56.9,51.8,29.79,NNE,29,0.0,0.0,83,0.00,,,0.00,0,Wunderground v.1.15,2013-09-14 10:23:00,
2013-09-14 06:27:00,56.8,51.7,29.80,NNE,29,0.0,0.0,83,0.00,,,0.00,0,Wunderground v.1.15,2013-09-14 10:27:00,
2013-09-14 06:28:00,56.8,51.7,29.80,NNE,29,0.0,0.0,83,0.00,,,0.00,0,Wunderground v.1.15,2013-09-14 10:28:00,
2013-09-14 06:29:00,56.7,51.6,29.80,NNE,29,0.0,0.0,83,0.00,,,0.00,0,Wunderground v.1.15,2013-09-14 10:29:00,
2013-09-14 06:30:00,56.7,51.6,29.80,NNE,29,0.0,0.0,83,0.00,,,0.00,0,Wunderground v.1.15,2013-09-14 10:30:00,
2013-09-14 06:33:00,56.7,51.6,29.80,NNE,29,0.0,0.0,83,0.00,,,0.00,0,Wunderground v.1.15,2013-09-14 10:33:00,
2013-09-14 06:35:00,56.6,51.5,29.80,NNE,29,0.0,0.0,83,0.00,,,0.00,0,Wunderground v.1.15,2013-09-14 10:35:00,
2013-09-14 06:36:00,56.6,51.5,29.80,NNE,29,0.0,0.0,83,0.00,,,0.00,0,Wunderground v.1.15,2013-09-14 10:36:00,
2013-09-14 06:37:00,56.6,51.5,29.80,NNE,29,0.0,0.0,83,0.00,,,0.00,0,Wunderground v.1.15,2013-09-14 10:37:00,
2013-09-14 06:38:00,56.6,51.5,29.81,NNE,29,0.0,0.0,83,0.00,,,0.00,0,Wunderground v.1.15,2013-09-14 10:38:00,
2013-09-14 06:39:00,56.6,51.5,29.80,NNE,29,0.0,0.0,83,0.00,,,0.00,0,Wunderground v.1.15,2013-09-14 10:39:00,
2013-09-14 06:41:00,56.6,51.5,29.80,NNE,29,0.0,0.0,83,0.00,,,0.00,0,Wunderground v.1.15,2013-09-14 10:41:00,
2013-09-14 06:43:00,56.6,51.5,29.80,NNE,29,0.0,0.0,83,0.00,,,0.00,0,Wunderground v.1.15,2013-09-14 10:43:00,
2013-09-14 06:44:00,56.6,51.5,29.80,NNE,29,0.0,0.0,83,0.00,,,0.00,0,Wunderground v.1.15,2013-09-14 10:44:00,
2013-09-14 06:49:00,56.6,51.5,29.81,NNE,29,0.0,0.0,83,0.00,,,0.00,0,Wunderground v.1.15,2013-09-14 10:49:00,
2013-09-14 06:50:00,56.6,51.2,29.81,NNE,29,0.0,0.0,82,0.00,,,0.00,0,Wunderground v.1.15,2013-09-14 10:50:00,
2013-09-14 06:52:00,56.6,51.2,29.81,NNE,29,0.0,0.0,82,0.00,,,0.00,0,Wunderground v.1.15,2013-09-14 10:52:00,
2013-09-14 06:53:00,56.7,51.3,29.81,NNE,29,0.0,0.0,82,0.00,,,0.00,0,Wunderground v.1.15,2013-09-14 10:53:00,
2013-09-14 06:55:00,56.7,51.3,29.81,NNE,29,0.0,0.0,82,0.00,,,0.00,0,Wunderground v.1.15,2013-09-14 10:55:00,
2013-09-14 06:56:00,56.7,51.3,29.81,NNE,29,0.0,0.0,82,0.00,,,0.00,0,Wunderground v.1.15,2013-09-14 10:56:00,
2013-09-14 06:57:00,56.7,50.9,29.81,NNE,29,0.0,0.0,81,0.00,,,0.00,0,Wunderground v.1.15,2013-09-14 10:57:00,
2013-09-14 06:59:00,56.7,50.9,29.81,NNE,29,0.0,0.0,81,0.00,,,0.00,0,Wunderground v.1.15,2013-09-14 10:59:00,
2013-09-14 07:01:00,56.7,50.9,29.81,NNE,29,0.0,0.0,81,0.00,,,0.00,0,Wunderground v.1.15,2013-09-14 11:01:00,
2013-09-14 07:02:00,56.7,50.9,29.81,NNE,29,0.0,0.0,81,0.00,,,0.00,0,Wunderground v.1.15,2013-09-14 11:02:00,
2013-09-14 07:03:00,56.7,50.9,29.81,NNE,29,0.0,0.0,81,0.00,,,0.00,0,Wunderground v.1.15,2013-09-14 11:03:00,
2013-09-14 07:05:00,56.7,50.9,29.81,NNE,29,0.0,0.0,81,0.00,,,0.00,0,Wunderground v.1.15,2013-09-14 11:05:00,
2013-09-14 07:07:00,56.7,50.9,29.81,NNE,29,0.0,0.0,81,0.00,,,0.00,5,Wunderground v.1.15,2013-09-14 11:07:00,
2013-09-14 07:08:00,56.7,50.9,29.81,NNE,29,0.0,0.0,81,0.00,,,0.00,5,Wunderground v.1.15,2013-09-14 11:08:00,
2013-09-14 07:10:00,56.7,50.6,29.82,NNE,29,0.0,0.0,80,0.00,,,0.00,7,Wunderground v.1.15,2013-09-14 11:10:00,
2013-09-14 07:11:00,56.7,50.6,29.82,NNE,29,0.0,0.0,80,0.00,,,0.00,7,Wunderground v.1.15,2013-09-14 11:11:00,
2013-09-14 07:13:00,56.7,50.6,29.82,NNE,29,0.0,0.0,80,0.00,,,0.00,9,Wunderground v.1.15,2013-09-14 11:13:00,
2013-09-14 07:15:00,56.6,50.5,29.82,NNE,29,0.0,0.0,80,0.00,,,0.00,9,Wunderground v.1.15,2013-09-14 11:15:00,
2013-09-14 07:18:00,56.6,50.5,29.82,NNE,29,0.0,0.0,80,0.00,,,0.00,12,Wunderground v.1.15,2013-09-14 11:18:00,
2013-09-14 07:20:00,56.6,50.5,29.82,NNE,29,0.0,0.0,80,0.00,,,0.00,12,Wunderground v.1.15,2013-09-14 11:20:00,
2013-09-14 07:21:00,56.6,50.5,29.83,NNE,29,0.0,0.0,80,0.00,,,0.00,12,Wunderground v.1.15,2013-09-14 11:21:00,
2013-09-14 07:23:00,56.6,50.5,29.83,NNE,29,0.0,0.0,80,0.00,,,0.00,14,Wunderground v.1.15,2013-09-14 11:23:00,
2013-09-14 07:24:00,56.6,50.5,29.83,NNE,29,0.0,0.0,80,0.00,,,0.00,14,Wunderground v.1.15,2013-09-14 11:24:00,
2013-09-14 07:26:00,56.6,50.5,29.83,NNE,29,0.0,0.0,80,0.00,,,0.00,14,Wunderground v.1.15,2013-09-14 11:26:00,
2013-09-14 07:27:00,56.7,50.6,29.83,NNE,29,0.0,0.0,80,0.00,,,0.00,16,Wunderground v.1.15,2013-09-14 11:27:00,
2013-09-14 07:30:00,56.7,50.3,29.83,NNE,29,0.0,0.0,79,0.00,,,0.00,14,Wunderground v.1.15,2013-09-14 11:30:00,
2013-09-14 07:31:00,56.7,50.3,29.83,NNE,29,0.0,0.0,79,0.00,,,0.00,16,Wunderground v.1.15,2013-09-14 11:31:00,
2013-09-14 07:32:00,56.6,50.2,29.83,NNE,29,0.0,0.0,79,0.00,,,0.00,16,Wunderground v.1.15,2013-09-14 11:32:00,
2013-09-14 07:35:00,56.6,50.2,29.83,NNE,29,0.0,0.0,79,0.00,,,0.00,18,Wunderground v.1.15,2013-09-14 11:35:00,
2013-09-14 07:36:00,56.6,50.2,29.83,NNE,29,0.0,0.0,79,0.00,,,0.00,19,Wunderground v.1.15,2013-09-14 11:36:00,
2013-09-14 07:39:00,56.6,50.2,29.83,NNE,29,0.0,0.0,79,0.00,,,0.00,14,Wunderground v.1.15,2013-09-14 11:39:00,
2013-09-14 07:41:00,56.6,50.2,29.83,NNE,29,0.0,0.0,79,0.00,,,0.00,18,Wunderground v.1.15,2013-09-14 11:41:00,
2013-09-14 07:42:00,56.6,50.2,29.83,NNE,29,0.0,0.0,79,0.00,,,0.00,21,Wunderground v.1.15,2013-09-14 11:42:00,
2013-09-14 07:43:00,56.6,50.2,29.83,NNE,29,0.0,0.0,79,0.00,,,0.00,25,Wunderground v.1.15,2013-09-14 11:43:00,
2013-09-14 07:46:00,56.5,50.1,29.84,NNE,29,0.0,0.0,79,0.00,,,0.00,30,Wunderground v.1.15,2013-09-14 11:46:00,
2013-09-14 07:47:00,56.5,49.7,29.84,NNE,29,0.0,0.0,78,0.00,,,0.00,32,Wunderground v.1.15,2013-09-14 11:47:00,
2013-09-14 07:49:00,56.5,49.7,29.84,NNE,29,0.0,0.0,78,0.00,,,0.00,28,Wunderground v.1.15,2013-09-14 11:49:00,
2013-09-14 07:52:00,56.4,49.6,29.84,NNE,29,0.0,0.0,78,0.00,,,0.00,51,Wunderground v.1.15,2013-09-14 11:52:00,
2013-09-14 07:53:00,56.5,49.7,29.84,NNE,29,0.0,0.0,78,0.00,,,0.00,54,Wunderground v.1.15,2013-09-14 11:53:00,
2013-09-14 07:55:00,56.5,49.7,29.84,NNE,29,0.0,0.0,78,0.00,,,0.00,60,Wunderground v.1.15,2013-09-14 11:55:00,
2013-09-14 07:58:00,56.6,49.8,29.84,NE,36,0.0,0.0,78,0.00,,,0.00,70,Wunderground v.1.15,2013-09-14 11:58:00,
2013-09-14 07:59:00,56.6,49.8,29.84,NE,36,0.0,0.0,78,0.00,,,0.00,70,Wunderground v.1.15,2013-09-14 11:59:00,
2013-09-14 08:00:00,56.6,49.8,29.84,NNW,339,0.0,0.0,78,0.00,,,0.00,72,Wunderground v.1.15,2013-09-14 12:00:00,
2013-09-14 08:01:00,56.7,49.6,29.84,NNW,329,0.0,0.0,77,0.00,,,0.00,62,Wunderground v.1.15,2013-09-14 12:01:00,
2013-09-14 08:02:00,56.7,49.6,29.84,NNW,331,0.0,0.0,77,0.00,,,0.00,53,Wunderground v.1.15,2013-09-14 12:02:00,
2013-09-14 08:03:00,56.7,49.6,29.84,NNW,331,0.0,0.0,77,0.00,,,0.00,53,Wunderground v.1.15,2013-09-14 12:03:00,
2013-09-14 08:08:00,56.9,49.4,29.84,NNW,339,0.0,1.0,76,0.00,,,0.00,84,Wunderground v.1.15,2013-09-14 12:08:00,
2013-09-14 08:11:00,57.1,49.6,29.84,NNE,24,0.0,0.0,76,0.00,,,0.00,77,Wunderground v.1.15,2013-09-14 12:11:00,
2013-09-14 08:14:00,57.3,49.4,29.84,NNW,327,0.0,0.0,75,0.00,,,0.00,56,Wunderground v.1.15,2013-09-14 12:14:00,
2013-09-14 08:16:00,57.4,49.5,29.84,NNE,32,0.0,0.0,75,0.00,,,0.00,67,Wunderground v.1.15,2013-09-14 12:16:00,
2013-09-14 08:17:00,57.4,49.5,29.84,NNE,32,0.0,0.0,75,0.00,,,0.00,67,Wunderground v.1.15,2013-09-14 12:17:00,
2013-09-14 08:18:00,57.5,49.6,29.84,NNE,32,0.0,0.0,75,0.00,,,0.00,118,Wunderground v.1.15,2013-09-14 12:18:00,
2013-09-14 08:19:00,57.5,49.3,29.85,NNE,32,0.0,0.0,74,0.00,,,0.00,69,Wunderground v.1.15,2013-09-14 12:19:00,
2013-09-14 08:20:00,57.5,49.6,29.85,NNE,32,0.0,0.0,75,0.00,,,0.00,163,Wunderground v.1.15,2013-09-14 12:20:00,
2013-09-14 08:22:00,57.6,49.4,29.85,NNE,32,0.0,0.0,74,0.00,,,0.00,84,Wunderground v.1.15,2013-09-14 12:22:00,
2013-09-14 08:24:00,57.7,49.5,29.85,NNE,32,0.0,0.0,74,0.00,,,0.00,84,Wunderground v.1.15,2013-09-14 12:24:00,
2013-09-14 08:25:00,57.7,49.5,29.85,NNE,32,0.0,0.0,74,0.00,,,0.00,77,Wunderground v.1.15,2013-09-14 12:25:00,
2013-09-14 08:27:00,57.9,49.7,29.85,ENE,60,0.0,0.0,74,0.00,,,0.00,128,Wunderground v.1.15,2013-09-14 12:27:00,
2013-09-14 08:29:00,58.0,49.8,29.86,ENE,60,0.0,0.0,74,0.00,,,0.00,76,Wunderground v.1.15,2013-09-14 12:29:00,
2013-09-14 08:30:00,58.1,49.9,29.86,ENE,62,0.0,0.0,74,0.00,,,0.00,98,Wunderground v.1.15,2013-09-14 12:30:00,
2013-09-14 08:31:00,58.1,49.5,29.86,NNW,345,0.0,0.0,73,0.00,,,0.00,127,Wunderground v.1.15,2013-09-14 12:31:00,
2013-09-14 08:34:00,58.2,49.6,29.86,NNW,345,0.0,0.0,73,0.00,,,0.00,70,Wunderground v.1.15,2013-09-14 12:34:00,
2013-09-14 08:35:00,58.3,49.7,29.86,NNW,345,0.0,0.0,73,0.00,,,0.00,74,Wunderground v.1.15,2013-09-14 12:35:00,
2013-09-14 08:37:00,58.4,49.8,29.86,NNW,345,0.0,0.0,73,0.00,,,0.00,74,Wunderground v.1.15,2013-09-14 12:37:00,
2013-09-14 08:38:00,58.4,49.8,29.86,NNW,345,0.0,0.0,73,0.00,,,0.00,81,Wunderground v.1.15,2013-09-14 12:38:00,
2013-09-14 08:39:00,58.5,49.9,29.86,NNW,345,0.0,0.0,73,0.00,,,0.00,81,Wunderground v.1.15,2013-09-14 12:39:00,
2013-09-14 08:40:00,58.5,49.5,29.86,North,350,0.0,0.0,72,0.00,,,0.00,67,Wunderground v.1.15,2013-09-14 12:40:00,
2013-09-14 08:42:00,58.6,49.6,29.86,North,349,0.0,0.0,72,0.00,,,0.00,65,Wunderground v.1.15,2013-09-14 12:42:00,
2013-09-14 08:43:00,58.6,49.6,29.86,North,349,0.0,0.0,72,0.00,,,0.00,60,Wunderground v.1.15,2013-09-14 12:43:00,
2013-09-14 08:44:00,58.6,50.0,29.86,North,360,0.0,0.0,73,0.00,,,0.00,58,Wunderground v.1.15,2013-09-14 12:44:00,
2013-09-14 08:50:00,58.7,49.7,29.86,NE,46,0.0,0.0,72,0.00,,,0.00,390,Wunderground v.1.15,2013-09-14 12:50:00,
2013-09-14 08:52:00,58.7,49.7,29.86,NE,46,0.0,0.0,72,0.00,,,0.00,67,Wunderground v.1.15,2013-09-14 12:52:00,
2013-09-14 08:53:00,58.8,49.4,29.86,North,360,0.0,0.0,71,0.00,,,0.00,70,Wunderground v.1.15,2013-09-14 12:53:00,
2013-09-14 08:57:00,59.1,49.7,29.86,North,355,0.0,0.0,71,0.00,,,0.00,410,Wunderground v.1.15,2013-09-14 12:57:00,
2013-09-14 08:58:00,59.3,49.5,29.86,NNW,328,0.0,2.0,70,0.00,,,0.00,410,Wunderground v.1.15,2013-09-14 12:58:00,
2013-09-14 09:00:00,59.5,49.7,29.86,NNW,327,0.0,0.0,70,0.00,,,0.00,267,Wunderground v.1.15,2013-09-14 13:00:00,
2013-09-14 09:02:00,59.6,49.8,29.86,NNW,336,0.0,0.0,70,0.00,,,0.00,420,Wunderground v.1.15,2013-09-14 13:02:00,
2013-09-14 09:03:00,59.8,50.0,29.86,WSW,242,0.0,0.0,70,0.00,,,0.00,420,Wunderground v.1.15,2013-09-14 13:03:00,
2013-09-14 09:04:00,59.8,49.6,29.87,NNW,328,0.0,0.0,69,0.00,,,0.00,415,Wunderground v.1.15,2013-09-14 13:04:00,
2013-09-14 09:06:00,60.0,49.8,29.87,NE,43,0.0,0.0,69,0.00,,,0.00,427,Wunderground v.1.15,2013-09-14 13:06:00,
2013-09-14 09:09:00,60.4,50.2,29.87,NNW,345,0.0,0.0,69,0.00,,,0.00,454,Wunderground v.1.15,2013-09-14 13:09:00,
2013-09-14 09:10:00,60.5,49.9,29.87,NNW,338,0.0,2.0,68,0.00,,,0.00,443,Wunderground v.1.15,2013-09-14 13:10:00,
2013-09-14 09:11:00,60.7,49.3,29.87,NNW,347,0.0,2.0,66,0.00,,,0.00,424,Wunderground v.1.15,2013-09-14 13:11:00,
2013-09-14 09:12:00,60.8,49.4,29.87,North,350,0.0,2.0,66,0.00,,,0.00,364,Wunderground v.1.15,2013-09-14 13:12:00,
2013-09-14 09:13:00,60.9,49.5,29.87,North,350,0.0,2.0,66,0.00,,,0.00,304,Wunderground v.1.15,2013-09-14 13:13:00,
2013-09-14 09:17:00,61.2,49.7,29.87,North,349,0.0,2.0,66,0.00,,,0.00,459,Wunderground v.1.15,2013-09-14 13:17:00,
2013-09-14 09:18:00,61.3,49.8,29.87,NNW,348,0.0,2.0,66,0.00,,,0.00,455,Wunderground v.1.15,2013-09-14 13:18:00,
2013-09-14 09:19:00,61.4,49.9,29.87,NNW,344,0.0,2.0,66,0.00,,,0.00,462,Wunderground v.1.15,2013-09-14 13:19:00,
2013-09-14 09:20:00,61.4,49.5,29.87,NW,306,0.0,0.0,65,0.00,,,0.00,478,Wunderground v.1.15,2013-09-14 13:20:00,
2013-09-14 09:21:00,61.5,49.6,29.87,NW,315,0.0,0.0,65,0.00,,,0.00,478,Wunderground v.1.15,2013-09-14 13:21:00,
2013-09-14 09:23:00,61.6,49.7,29.87,WNW,298,0.0,0.0,65,0.00,,,0.00,478,Wunderground v.1.15,2013-09-14 13:23:00,
2013-09-14 09:25:00,61.6,49.3,29.88,NNW,330,0.0,2.0,64,0.00,,,0.00,478,Wunderground v.1.15,2013-09-14 13:25:00,
2013-09-14 09:26:00,61.6,49.3,29.88,NNW,330,0.0,2.0,64,0.00,,,0.00,478,Wunderground v.1.15,2013-09-14 13:26:00,
2013-09-14 09:27:00,61.6,49.3,29.88,NW,325,0.0,2.0,64,0.00,,,0.00,492,Wunderground v.1.15,2013-09-14 13:27:00,
2013-09-14 09:31:00,61.8,49.1,29.88,NW,323,0.0,2.0,63,0.00,,,0.00,501,Wunderground v.1.15,2013-09-14 13:31:00,
2013-09-14 09:32:00,61.8,49.1,29.88,NW,323,0.0,2.0,63,0.00,,,0.00,512,Wunderground v.1.15,2013-09-14 13:32:00,
2013-09-14 09:33:00,61.9,49.6,29.88,ENE,69,0.0,2.0,64,0.00,,,0.00,499,Wunderground v.1.15,2013-09-14 13:33:00,
2013-09-14 09:34:00,62.0,49.3,29.88,SSE,151,0.0,2.0,63,0.00,,,0.00,483,Wunderground v.1.15,2013-09-14 13:34:00,
2013-09-14 09:38:00,62.3,49.1,29.88,NNW,327,0.0,2.0,62,0.00,,,0.00,540,Wunderground v.1.15,2013-09-14 13:38:00,
2013-09-14 09:40:00,62.4,48.8,29.88,NNW,327,0.0,0.0,61,0.00,,,0.00,545,Wunderground v.1.15,2013-09-14 13:40:00,
2013-09-14 09:42:00,62.5,48.9,29.88,NW,325,0.0,0.0,61,0.00,,,0.00,545,Wunderground v.1.15,2013-09-14 13:42:00,
2013-09-14 09:43:00,62.6,48.5,29.88,NNW,328,0.0,0.0,60,0.00,,,0.00,548,Wunderground v.1.15,2013-09-14 13:43:00,
2013-09-14 09:44:00,62.7,48.6,29.88,NW,325,0.0,0.0,60,0.00,,,0.00,548,Wunderground v.1.15,2013-09-14 13:44:00,
2013-09-14 09:48:00,63.0,48.0,29.88,North,360,0.0,1.0,58,0.00,,,0.00,536,Wunderground v.1.15,2013-09-14 13:48:00,
2013-09-14 09:49:00,63.0,48.4,29.88,North,360,0.0,1.0,59,0.00,,,0.00,599,Wunderground v.1.15,2013-09-14 13:49:00,
2013-09-14 09:51:00,63.2,48.2,29.88,NNW,331,0.0,0.0,58,0.00,,,0.00,599,Wunderground v.1.15,2013-09-14 13:51:00,
2013-09-14 09:53:00,63.3,48.3,29.88,NW,325,0.0,0.0,58,0.00,,,0.00,123,Wunderground v.1.15,2013-09-14 13:53:00,
2013-09-14 09:54:00,63.3,48.3,29.88,NNW,332,0.0,1.0,58,0.00,,,0.00,587,Wunderground v.1.15,2013-09-14 13:54:00,
2013-09-14 10:00:00,63.6,48.1,29.88,NNW,345,1.0,1.0,57,0.00,,,0.00,585,Wunderground v.1.15,2013-09-14 14:00:00,
2013-09-14 10:01:00,63.6,48.1,29.88,NNW,348,1.0,1.0,57,0.00,,,0.00,585,Wunderground v.1.15,2013-09-14 14:01:00,
2013-09-14 10:02:00,63.7,48.2,29.88,NW,324,1.0,3.0,57,0.00,,,0.00,585,Wunderground v.1.15,2013-09-14 14:02:00,
2013-09-14 10:04:00,63.8,48.7,29.88,NW,325,1.0,3.0,58,0.00,,,0.00,612,Wunderground v.1.15,2013-09-14 14:04:00,
2013-09-14 10:06:00,64.0,48.9,29.88,NW,325,1.0,3.0,58,0.00,,,0.00,612,Wunderground v.1.15,2013-09-14 14:06:00,
2013-09-14 10:07:00,64.1,49.0,29.88,NNW,344,1.0,3.0,58,0.00,,,0.00,617,Wunderground v.1.15,2013-09-14 14:07:00,
2013-09-14 10:08:00,64.2,49.6,29.88,NW,325,1.0,5.0,59,0.00,,,0.00,621,Wunderground v.1.15,2013-09-14 14:08:00,
2013-09-14 10:11:00,64.5,48.9,29.89,NE,34,1.0,1.0,57,0.00,,,0.00,624,Wunderground v.1.15,2013-09-14 14:11:00,
2013-09-14 10:13:00,64.6,49.0,29.88,NW,325,1.0,2.0,57,0.00,,,0.00,626,Wunderground v.1.15,2013-09-14 14:13:00,
2013-09-14 10:14:00,64.7,48.6,29.89,NNW,327,1.0,3.0,56,0.00,,,0.00,631,Wunderground v.1.15,2013-09-14 14:14:00,
2013-09-14 10:15:00,64.7,48.2,29.88,NW,325,1.0,3.0,55,0.00,,,0.00,633,Wunderground v.1.15,2013-09-14 14:15:00,
2013-09-14 10:18:00,64.6,48.1,29.88,NNW,347,1.0,3.0,55,0.00,,,0.00,652,Wunderground v.1.15,2013-09-14 14:18:00,
2013-09-14 10:19:00,64.7,48.6,29.88,NW,325,1.0,3.0,56,0.00,,,0.00,663,Wunderground v.1.15,2013-09-14 14:19:00,
2013-09-14 10:20:00,64.7,48.6,29.89,NW,323,1.0,1.0,56,0.00,,,0.00,650,Wunderground v.1.15,2013-09-14 14:20:00,
2013-09-14 10:21:00,64.7,48.6,29.89,NNW,327,1.0,3.0,56,0.00,,,0.00,657,Wunderground v.1.15,2013-09-14 14:21:00,
2013-09-14 10:24:00,64.8,48.7,29.89,NW,321,1.0,3.0,56,0.00,,,0.00,671,Wunderground v.1.15,2013-09-14 14:24:00,
2013-09-14 10:27:00,64.9,47.4,29.89,NNW,327,1.0,5.0,53,0.00,,,0.00,682,Wunderground v.1.15,2013-09-14 14:27:00,
2013-09-14 10:30:00,64.8,47.8,29.89,NNW,342,1.0,1.0,54,0.00,,,0.00,682,Wunderground v.1.15,2013-09-14 14:30:00,
2013-09-14 10:31:00,64.8,48.2,29.89,NNE,26,1.0,1.0,55,0.00,,,0.00,686,Wunderground v.1.15,2013-09-14 14:31:00,
2013-09-14 10:34:00,64.9,48.3,29.89,NW,322,1.0,1.0,55,0.00,,,0.00,703,Wunderground v.1.15,2013-09-14 14:34:00,
2013-09-14 10:37:00,65.0,48.4,29.89,NNE,13,1.0,1.0,55,0.00,,,0.00,703,Wunderground v.1.15,2013-09-14 14:37:00,
2013-09-14 10:38:00,65.1,49.0,29.89,NE,53,0.0,1.0,56,0.00,,,0.00,703,Wunderground v.1.15,2013-09-14 14:38:00,
2013-09-14 10:41:00,65.1,48.0,29.89,NW,320,1.0,4.0,54,0.00,,,0.00,703,Wunderground v.1.15,2013-09-14 14:41:00,
2013-09-14 10:42:00,65.1,48.0,29.89,NW,312,1.0,4.0,54,0.00,,,0.00,721,Wunderground v.1.15,2013-09-14 14:42:00,
2013-09-14 10:43:00,65.1,48.0,29.89,NW,319,1.0,4.0,54,0.00,,,0.00,717,Wunderground v.1.15,2013-09-14 14:43:00,
2013-09-14 10:44:00,65.0,48.4,29.89,NNE,12,1.0,4.0,55,0.00,,,0.00,721,Wunderground v.1.15,2013-09-14 14:44:00,
2013-09-14 10:48:00,65.0,47.9,29.89,NNE,25,1.0,4.0,54,0.00,,,0.00,686,Wunderground v.1.15,2013-09-14 14:48:00,
2013-09-14 10:49:00,65.1,48.0,29.89,NNW,345,1.0,4.0,54,0.00,,,0.00,687,Wunderground v.1.15,2013-09-14 14:49:00,
2013-09-14 10:52:00,65.4,48.3,29.89,NNW,336,1.0,2.0,54,0.00,,,0.00,401,Wunderground v.1.15,2013-09-14 14:52:00,
2013-09-14 10:54:00,65.6,48.5,29.89,NW,325,1.0,2.0,54,0.00,,,0.00,401,Wunderground v.1.15,2013-09-14 14:54:00,
2013-09-14 10:55:00,65.7,48.1,29.89,NW,323,1.0,2.0,53,0.00,,,0.00,401,Wunderground v.1.15,2013-09-14 14:55:00,
2013-09-14 10:56:00,65.7,48.1,29.89,ESE,113,1.0,2.0,53,0.00,,,0.00,401,Wunderground v.1.15,2013-09-14 14:56:00,
2013-09-14 10:57:00,65.8,48.2,29.89,NW,325,1.0,2.0,53,0.00,,,0.00,668,Wunderground v.1.15,2013-09-14 14:57:00,
2013-09-14 11:00:00,65.9,48.3,29.89,NNW,331,1.0,2.0,53,0.00,,,0.00,664,Wunderground v.1.15,2013-09-14 15:00:00,
2013-09-14 11:01:00,65.9,47.8,29.89,NW,315,1.0,2.0,52,0.00,,,0.00,664,Wunderground v.1.15,2013-09-14 15:01:00,
2013-09-14 11:02:00,65.9,47.8,29.89,NW,325,1.0,2.0,52,0.00,,,0.00,664,Wunderground v.1.15,2013-09-14 15:02:00,
2013-09-14 11:06:00,65.8,47.7,29.89,NNW,339,1.0,2.0,52,0.00,,,0.00,114,Wunderground v.1.15,2013-09-14 15:06:00,
2013-09-14 11:07:00,65.8,47.7,29.89,NW,305,1.0,2.0,52,0.00,,,0.00,214,Wunderground v.1.15,2013-09-14 15:07:00,
2013-09-14 11:09:00,65.8,48.2,29.89,NW,320,1.0,2.0,53,0.00,,,0.00,489,Wunderground v.1.15,2013-09-14 15:09:00,
2013-09-14 11:12:00,65.8,48.7,29.89,NNW,345,1.0,2.0,54,0.00,,,0.00,155,Wunderground v.1.15,2013-09-14 15:12:00,
2013-09-14 11:14:00,65.9,48.8,29.89,NNW,332,1.0,2.0,54,0.00,,,0.00,128,Wunderground v.1.15,2013-09-14 15:14:00,
2013-09-14 11:16:00,65.9,48.8,29.89,NNW,340,1.0,2.0,54,0.00,,,0.00,104,Wunderground v.1.15,2013-09-14 15:16:00,
2013-09-14 11:17:00,66.0,48.9,29.89,NW,321,1.0,2.0,54,0.00,,,0.00,190,Wunderground v.1.15,2013-09-14 15:17:00,
2013-09-14 11:18:00,66.0,48.4,29.89,NNW,333,1.0,2.0,53,0.00,,,0.00,248,Wunderground v.1.15,2013-09-14 15:18:00,
2013-09-14 11:20:00,66.0,47.9,29.89,North,5,1.0,1.0,52,0.00,,,0.00,304,Wunderground v.1.15,2013-09-14 15:20:00,
2013-09-14 11:22:00,66.0,48.4,29.89,WSW,246,1.0,1.0,53,0.00,,,0.00,304,Wunderground v.1.15,2013-09-14 15:22:00,
2013-09-14 11:25:00,66.1,48.5,29.89,NW,326,0.0,1.0,53,0.00,,,0.00,304,Wunderground v.1.15,2013-09-14 15:25:00,
2013-09-14 11:27:00,66.2,49.1,29.89,NNE,24,0.0,1.0,54,0.00,,,0.00,304,Wunderground v.1.15,2013-09-14 15:27:00,
2013-09-14 11:28:00,66.3,49.2,29.89,ENE,61,0.0,1.0,54,0.00,,,0.00,113,Wunderground v.1.15,2013-09-14 15:28:00,
2013-09-14 11:30:00,66.5,48.8,29.89,NW,315,0.0,0.0,53,0.00,,,0.00,236,Wunderground v.1.15,2013-09-14 15:30:00,
2013-09-14 11:31:00,66.5,48.8,29.89,NNW,344,0.0,1.0,53,0.00,,,0.00,151,Wunderground v.1.15,2013-09-14 15:31:00,
2013-09-14 11:33:00,66.6,48.9,29.89,NNE,19,0.0,2.0,53,0.00,,,0.00,204,Wunderground v.1.15,2013-09-14 15:33:00,
2013-09-14 11:36:00,66.6,48.4,29.89,East,83,0.0,2.0,52,0.00,,,0.00,204,Wunderground v.1.15,2013-09-14 15:36:00,
2013-09-14 11:37:00,66.6,48.4,29.89,East,83,0.0,2.0,52,0.00,,,0.00,204,Wunderground v.1.15,2013-09-14 15:37:00,
2013-09-14 11:38:00,66.7,48.5,29.89,NW,323,0.0,2.0,52,0.00,,,0.00,640,Wunderground v.1.15,2013-09-14 15:38:00,
2013-09-14 11:41:00,66.7,48.5,29.88,NNW,347,0.0,0.0,52,0.00,,,0.00,111,Wunderground v.1.15,2013-09-14 15:41:00,
2013-09-14 11:43:00,66.8,48.6,29.88,North,11,0.0,0.0,52,0.00,,,0.00,111,Wunderground v.1.15,2013-09-14 15:43:00,
2013-09-14 11:45:00,66.8,48.6,29.88,NW,312,0.0,0.0,52,0.00,,,0.00,118,Wunderground v.1.15,2013-09-14 15:45:00,
2013-09-14 11:47:00,66.8,48.6,29.88,WNW,292,0.0,1.0,52,0.00,,,0.00,81,Wunderground v.1.15,2013-09-14 15:47:00,
2013-09-14 11:49:00,66.8,48.1,29.88,NW,325,0.0,1.0,51,0.00,,,0.00,320,Wunderground v.1.15,2013-09-14 15:49:00,
2013-09-14 11:50:00,66.8,48.6,29.88,ESE,102,0.0,0.0,52,0.00,,,0.00,320,Wunderground v.1.15,2013-09-14 15:50:00,
2013-09-14 11:53:00,67.0,48.3,29.88,NNE,24,0.0,0.0,51,0.00,,,0.00,320,Wunderground v.1.15,2013-09-14 15:53:00,
2013-09-14 11:55:00,67.0,48.8,29.88,NNW,338,1.0,2.0,52,0.00,,,0.00,659,Wunderground v.1.15,2013-09-14 15:55:00,
2013-09-14 11:56:00,67.1,48.4,29.89,NNW,342,1.0,2.0,51,0.00,,,0.00,178,Wunderground v.1.15,2013-09-14 15:56:00,
2013-09-14 11:57:00,67.1,47.8,29.89,NNW,328,1.0,3.0,50,0.00,,,0.00,178,Wunderground v.1.15,2013-09-14 15:57:00,
2013-09-14 12:01:00,67.2,48.5,29.88,NW,310,1.0,4.0,51,0.00,,,0.00,204,Wunderground v.1.15,2013-09-14 16:01:00,
2013-09-14 12:02:00,67.2,48.5,29.88,NW,309,1.0,4.0,51,0.00,,,0.00,121,Wunderground v.1.15,2013-09-14 16:02:00,
2013-09-14 12:05:00,67.2,47.9,29.88,NW,326,1.0,4.0,50,0.00,,,0.00,123,Wunderground v.1.15,2013-09-14 16:05:00,
2013-09-14 12:06:00,67.1,48.4,29.88,NW,325,1.0,4.0,51,0.00,,,0.00,329,Wunderground v.1.15,2013-09-14 16:06:00,
2013-09-14 12:10:00,67.1,47.8,29.88,NNW,336,1.0,1.0,50,0.00,,,0.00,83,Wunderground v.1.15,2013-09-14 16:10:00,
2013-09-14 12:11:00,67.1,48.4,29.88,West,281,1.0,1.0,51,0.00,,,0.00,109,Wunderground v.1.15,2013-09-14 16:11:00,
2013-09-14 12:16:00,67.1,48.9,29.88,NE,42,0.0,1.0,52,0.00,,,0.00,132,Wunderground v.1.15,2013-09-14 16:16:00,
2013-09-14 12:17:00,67.1,48.9,29.88,NNW,331,0.0,1.0,52,0.00,,,0.00,113,Wunderground v.1.15,2013-09-14 16:17:00,
2013-09-14 12:19:00,67.3,49.1,29.88,NNW,333,0.0,1.0,52,0.00,,,0.00,83,Wunderground v.1.15,2013-09-14 16:19:00,
2013-09-14 12:22:00,67.3,48.5,29.88,NW,317,0.0,3.0,51,0.00,,,0.00,74,Wunderground v.1.15,2013-09-14 16:22:00,
2013-09-14 12:23:00,67.3,49.1,29.88,NW,306,0.0,3.0,52,0.00,,,0.00,70,Wunderground v.1.15,2013-09-14 16:23:00,
2013-09-14 12:24:00,67.3,49.1,29.88,SE,128,0.0,3.0,52,0.00,,,0.00,70,Wunderground v.1.15,2013-09-14 16:24:00,
2013-09-14 12:25:00,67.3,49.1,29.88,NNE,24,0.0,3.0,52,0.00,,,0.00,70,Wunderground v.1.15,2013-09-14 16:25:00,
2013-09-14 12:26:00,67.4,49.2,29.88,NNW,337,0.0,3.0,52,0.00,,,0.00,70,Wunderground v.1.15,2013-09-14 16:26:00,
2013-09-14 12:29:00,67.5,48.7,29.88,WNW,291,0.0,3.0,51,0.00,,,0.00,69,Wunderground v.1.15,2013-09-14 16:29:00,
2013-09-14 12:32:00,67.6,48.8,29.88,NW,319,0.0,0.0,51,0.00,,,0.00,69,Wunderground v.1.15,2013-09-14 16:32:00,
2013-09-14 12:33:00,67.7,48.4,29.88,NNW,329,0.0,3.0,50,0.00,,,0.00,69,Wunderground v.1.15,2013-09-14 16:33:00,
2013-09-14 12:34:00,67.7,48.4,29.88,East,88,0.0,3.0,50,0.00,,,0.00,69,Wunderground v.1.15,2013-09-14 16:34:00,
2013-09-14 12:36:00,67.7,48.9,29.88,NW,319,0.0,3.0,51,0.00,,,0.00,69,Wunderground v.1.15,2013-09-14 16:36:00,
2013-09-14 12:38:00,67.7,48.9,29.88,North,5,0.0,3.0,51,0.00,,,0.00,69,Wunderground v.1.15,2013-09-14 16:38:00,
2013-09-14 12:42:00,67.8,49.0,29.87,ENE,69,1.0,2.0,51,0.00,,,0.00,69,Wunderground v.1.15,2013-09-14 16:42:00,
2013-09-14 12:44:00,67.9,49.1,29.87,NNE,22,1.0,2.0,51,0.00,,,0.00,67,Wunderground v.1.15,2013-09-14 16:44:00,
2013-09-14 12:46:00,68.0,49.2,29.87,NNE,30,1.0,2.0,51,0.00,,,0.00,67,Wunderground v.1.15,2013-09-14 16:46:00,
2013-09-14 12:50:00,68.2,49.4,29.87,NNW,338,0.0,0.0,51,0.00,,,0.00,69,Wunderground v.1.15,2013-09-14 16:50:00,
2013-09-14 12:51:00,68.3,49.5,29.87,WSW,256,0.0,0.0,51,0.00,,,0.00,67,Wunderground v.1.15,2013-09-14 16:51:00,
2013-09-14 12:52:00,68.4,49.6,29.88,West,264,0.0,0.0,51,0.00,,,0.00,67,Wunderground v.1.15,2013-09-14 16:52:00,
2013-09-14 12:53:00,68.5,49.1,29.88,NW,321,0.0,1.0,50,0.00,,,0.00,67,Wunderground v.1.15,2013-09-14 16:53:00,
2013-09-14 12:54:00,68.5,48.6,29.87,NW,317,0.0,1.0,49,0.00,,,0.00,67,Wunderground v.1.15,2013-09-14 16:54:00,
2013-09-14 12:58:00,68.5,49.1,29.87,North,360,0.0,2.0,50,0.00,,,0.00,67,Wunderground v.1.15,2013-09-14 16:58:00,
2013-09-14 13:00:00,68.4,49.0,29.87,East,96,0.0,2.0,50,0.00,,,0.00,67,Wunderground v.1.15,2013-09-14 17:00:00,
2013-09-14 13:02:00,68.5,49.7,29.88,East,96,0.0,2.0,51,0.00,,,0.00,65,Wunderground v.1.15,2013-09-14 17:02:00,
2013-09-14 13:05:00,68.7,49.3,29.87,North,5,0.0,2.0,50,0.00,,,0.00,65,Wunderground v.1.15,2013-09-14 17:05:00,
2013-09-14 13:08:00,68.7,49.3,29.87,NW,309,0.0,4.0,50,0.00,,,0.00,65,Wunderground v.1.15,2013-09-14 17:08:00,
2013-09-14 13:10:00,68.8,49.9,29.87,NW,326,0.0,3.0,51,0.00,,,0.00,65,Wunderground v.1.15,2013-09-14 17:10:00,
2013-09-14 13:11:00,68.8,49.4,29.87,NNE,24,0.0,3.0,50,0.00,,,0.00,65,Wunderground v.1.15,2013-09-14 17:11:00,
2013-09-14 13:16:00,69.0,49.0,29.87,North,355,1.0,3.0,49,0.00,,,0.00,63,Wunderground v.1.15,2013-09-14 17:16:00,
2013-09-14 13:17:00,69.0,49.0,29.87,NNW,329,1.0,3.0,49,0.00,,,0.00,65,Wunderground v.1.15,2013-09-14 17:17:00,
2013-09-14 13:18:00,69.0,48.5,29.87,NNW,329,0.0,3.0,48,0.00,,,0.00,65,Wunderground v.1.15,2013-09-14 17:18:00,
2013-09-14 13:19:00,69.0,48.5,29.87,NNW,327,0.0,3.0,48,0.00,,,0.00,63,Wunderground v.1.15,2013-09-14 17:19:00,
2013-09-14 13:24:00,69.1,50.2,29.87,East,98,0.0,2.0,51,0.00,,,0.00,63,Wunderground v.1.15,2013-09-14 17:24:00,
2013-09-14 13:25:00,69.2,50.3,29.87,East,98,0.0,2.0,51,0.00,,,0.00,63,Wunderground v.1.15,2013-09-14 17:25:00,
2013-09-14 13:29:00,69.5,50.0,29.87,ENE,77,0.0,2.0,50,0.00,,,0.00,63,Wunderground v.1.15,2013-09-14 17:29:00,
2013-09-14 13:30:00,69.7,50.8,29.87,SE,140,0.0,0.0,51,0.00,,,0.00,63,Wunderground v.1.15,2013-09-14 17:30:00,
2013-09-14 13:31:00,69.8,50.3,29.87,SE,139,0.0,0.0,50,0.00,,,0.00,63,Wunderground v.1.15,2013-09-14 17:31:00,
2013-09-14 13:34:00,70.0,50.5,29.87,West,280,0.0,0.0,50,0.00,,,0.00,63,Wunderground v.1.15,2013-09-14 17:34:00,
2013-09-14 13:35:00,70.1,50.0,29.87,West,280,0.0,0.0,49,0.00,,,0.00,63,Wunderground v.1.15,2013-09-14 17:35:00,
2013-09-14 13:36:00,70.1,50.0,29.87,NNW,334,0.0,0.0,49,0.00,,,0.00,63,Wunderground v.1.15,2013-09-14 17:36:00,
2013-09-14 13:37:00,70.2,50.1,29.87,NW,323,0.0,0.0,49,0.00,,,0.00,63,Wunderground v.1.15,2013-09-14 17:37:00,
2013-09-14 13:39:00,70.1,50.0,29.87,NW,325,0.0,0.0,49,0.00,,,0.00,63,Wunderground v.1.15,2013-09-14 17:39:00,
2013-09-14 13:40:00,70.1,50.0,29.87,NW,325,0.0,0.0,49,0.00,,,0.00,63,Wunderground v.1.15,2013-09-14 17:40:00,
2013-09-14 13:44:00,70.0,50.0,29.87,NW,316,0.0,2.0,49,0.00,,,0.00,62,Wunderground v.1.15,2013-09-14 17:44:00,
2013-09-14 13:45:00,70.0,50.0,29.87,NNE,32,0.0,2.0,49,0.00,,,0.00,62,Wunderground v.1.15,2013-09-14 17:45:00,
2013-09-14 13:48:00,70.0,50.5,29.86,North,351,0.0,2.0,50,0.00,,,0.00,62,Wunderground v.1.15,2013-09-14 17:48:00,
2013-09-14 13:50:00,70.1,50.6,29.87,North,351,0.0,0.0,50,0.00,,,0.00,62,Wunderground v.1.15,2013-09-14 17:50:00,
2013-09-14 13:51:00,70.3,50.8,29.87,North,360,0.0,0.0,50,0.00,,,0.00,62,Wunderground v.1.15,2013-09-14 17:51:00,
2013-09-14 13:53:00,70.4,49.8,29.87,NNW,342,0.0,0.0,48,0.00,,,0.00,62,Wunderground v.1.15,2013-09-14 17:53:00,
2013-09-14 13:54:00,70.5,49.9,29.87,NW,325,0.0,3.0,48,0.00,,,0.00,60,Wunderground v.1.15,2013-09-14 17:54:00,
2013-09-14 13:57:00,70.5,49.9,29.87,NNW,339,0.0,3.0,48,0.00,,,0.00,60,Wunderground v.1.15,2013-09-14 17:57:00,
2013-09-14 13:58:00,70.5,49.9,29.86,NNW,342,0.0,3.0,48,0.00,,,0.00,60,Wunderground v.1.15,2013-09-14 17:58:00,
2013-09-14 14:01:00,70.5,49.9,29.86,NNW,341,0.0,0.0,48,0.00,,,0.00,60,Wunderground v.1.15,2013-09-14 18:01:00,
2013-09-14 14:03:00,70.6,50.0,29.86,NNW,332,0.0,0.0,48,0.00,,,0.00,60,Wunderground v.1.15,2013-09-14 18:03:00,
2013-09-14 14:04:00,70.5,49.9,29.86,NNW,333,0.0,0.0,48,0.00,,,0.00,60,Wunderground v.1.15,2013-09-14 18:04:00,
2013-09-14 14:05:00,70.5,49.9,29.86,NNW,333,0.0,0.0,48,0.00,,,0.00,60,Wunderground v.1.15,2013-09-14 18:05:00,
2013-09-14 14:08:00,70.5,49.9,29.86,West,277,0.0,0.0,48,0.00,,,0.00,58,Wunderground v.1.15,2013-09-14 18:08:00,
2013-09-14 14:11:00,70.5,50.4,29.86,ESE,117,0.0,0.0,49,0.00,,,0.00,58,Wunderground v.1.15,2013-09-14 18:11:00,
2013-09-14 14:13:00,70.6,50.0,29.86,SE,132,0.0,2.0,48,0.00,,,0.00,58,Wunderground v.1.15,2013-09-14 18:13:00,
2013-09-14 14:14:00,70.6,50.5,29.86,East,79,0.0,2.0,49,0.00,,,0.00,58,Wunderground v.1.15,2013-09-14 18:14:00,